Location: Vassar Physics Lab
(41.6843°N, 73.8954°W)
Time: 23:12:08
(UTC-05:00)

Daily predictions for brighter satellites

Satellite Brightness Start Highest point End
(mag) Time Altitude Azimuth Time Altitude Azimuth Time Altitude Azimuth
NOSS 3-1 (C) 4.3 16:52:36 10° WSW 16:58:08 45° NW 17:04:24 10° NNE
Cosmos 2219 3.8 16:56:03 10° N 17:01:05 32° ENE 17:06:04 10° ESE
Cosmos 2227 Rocket 3.7 16:59:05 10° NNE 17:02:16 15° NE 17:05:26 10° E
TIMED 4.5 16:58:36 10° SSW 17:02:57 79° ESE 17:07:21 10° NNE
Meteor 1-18 Rocket 4.4 16:59:17 10° SSE 17:04:35 49° E 17:09:59 10° NNE
Cosmos 2285 Rocket 4.2 16:58:49 10° NNW 17:05:09 79° WSW 17:11:27 10° SSE
Okean 3 3.5 17:02:05 10° S 17:06:15 87° W 17:10:28 10° N
Cosmos 1484 Rocket 2.9 17:03:31 10° SSE 17:07:26 58° ENE 17:11:24 10° N
Cosmos 1536 4.2 17:05:14 10° NNW 17:09:02 42° W 17:12:47 10° SSW
Cosmos 1271 Rocket 4.2 17:06:55 10° NNE 17:09:24 17° ENE 17:11:54 10° ESE
USA 161 3.3 17:08:44 10° N 17:11:12 31° WNW 17:13:47 10° SW
CZ-2C R/B 3.7 17:06:57 10° S 17:11:57 49° W 17:16:59 10° NNW
Cosmos 2279 Rocket 4.3 17:08:36 10° SSE 17:14:29 45° E 17:20:23 10° NNE
Cosmos 1500 3.1 17:14:09 10° N 17:17:58 73° E 17:21:42 10° SSE
ATLAS 2AS CENTAUR R/B 3.6 17:11:18 10° S 17:18:15 39° ESE 17:25:23 11° NE
Cosmos 1455 Rocket 4.1 17:15:41 10° NNE 17:19:17 24° ENE 17:22:51 10° SE
Cosmos 1680 Rocket 4.1 17:14:10 10° NNW 17:19:22 62° WSW 17:24:34 10° S
Cosmos 1656 Rocket 3.7 17:15:21 10° SSW 17:20:55 86° WNW 17:26:27 10° NNE
NOSS 2-3 (E) 3.9 17:17:15 10° SSW 17:21:47 65° ESE 17:26:53 11° NE
Cosmos 1607 4.0 17:15:28 10° NNW 17:21:55 62° NE 17:28:17 10° SE
Cosmos 1544 Rocket 4.4 17:19:01 10° NNE 17:22:46 27° ENE 17:26:28 10° SE
YAOGAN 1 2.9 17:20:54 10° SE 17:25:00 43° ENE 17:29:07 10° N
Cosmos 2297 Rocket 3.4 17:26:15 10° N 17:30:22 20° NE 17:32:42 16° E
CORIOLIS 4.1 17:26:25 10° SSE 17:31:51 84° ENE 17:37:17 10° NNW
Cosmos 1818 3.6 17:27:24 10° SW 17:32:49 82° WNW 17:38:12 10° NNE
ATLAS 3B R/B 3.3 17:27:09 10° NNW 17:33:03 31° NE 17:37:53 14° E
Meteor 1-12 Rocket 4.2 17:29:14 10° N 17:34:52 65° ENE 17:40:32 10° SSE
Cosmos 1812 4.2 17:32:27 10° SSW 17:36:04 38° WNW 17:39:43 10° N
COSMO-SKYMED 1 3.0 17:32:39 10° NNE 17:36:44 39° E 17:40:48 10° SSE
SMAP 3.4 17:33:43 10° S 17:38:20 70° WSW 17:42:59 10° NNW
MOS 1 4.4 17:36:07 10° SE 17:41:36 51° ENE 17:47:06 10° N
Cosmos 389 Rocket 2.6 17:38:34 10° N 17:41:59 48° ENE 17:45:20 10° SSE
CZ-2C R/B 3.7 17:38:13 10° NNE 17:42:53 81° ESE 17:47:35 10° SSW
Aureole 1 Rocket 3.9 17:37:19 10° NNW 17:42:53 72° ENE 17:50:08 10° SSE
ERS-2 2.5 17:39:55 10° SE 17:43:21 39° ENE 17:46:49 10° N
ISS -2.2 17:40:51 10° NNW 17:43:21 20° NNE 17:43:43 19° NNE
BREEZE-M DEB (TANK) 4.3 17:40:54 10° NW 17:43:23 29° NNE 17:45:05 22° ENE
Cosmos 1943 Rocket 4.0 17:40:37 10° WSW 17:45:16 26° NW 17:49:59 10° N
Cosmos 1655 Rocket 4.0 17:39:34 10° N 17:45:58 77° E 17:52:21 10° SSE
Cosmos 1898 Rocket 3.7 17:41:14 10° SSW 17:46:25 71° WNW 17:51:40 10° NNE
ALOS 2.6 17:42:33 10° SE 17:46:53 40° ENE 17:51:15 10° N
USA 116 3.2 17:46:10 10° N 17:49:33 81° WNW 17:52:41 10° SSW
Cosmos 1975 Rocket 3.3 17:45:22 10° SSW 17:49:48 75° W 17:54:18 10° N
Hubble Space Telescope 3.4 17:49:02 10° S 17:49:55 11° S 17:50:47 10° SSE
DELTA 2 R/B (1) 4.2 17:44:48 10° SW 17:50:04 45° SSE 17:53:20 22° E
IRS-1A Rocket 4.3 17:45:01 10° SSE 17:50:40 89° W 17:56:15 10° NNW
Cosmos 1666 2.7 17:47:06 10° N 17:50:47 50° E 17:54:24 10° SSE
Ariane Rocket 3.9 17:45:55 10° S 17:50:50 52° W 17:55:48 10° NNW
Cosmos 2298 Rocket 4.0 17:47:35 10° SSW 17:52:54 89° ESE 17:58:10 10° NNE
Abrixas rocket 2.3 17:51:07 10° SW 17:54:19 60° SSE 17:55:07 42° E
NOSS 2-3 (C) 4.2 17:52:43 10° SW 17:57:20 65° NW 18:01:26 17° NNE
Cosmos 1125 Rocket 4.4 17:53:47 10° SSE 17:58:12 27° E 17:58:40 27° E
MTI 3.6 17:56:21 24° NNE 17:58:12 81° ESE 18:01:25 10° S
SJ 16-02 2.8 17:58:07 10° SSE 18:00:17 20° ESE 18:00:17 20° ESE
ATLAS CENTAUR R/B 4.3 18:02:17 10° WNW 18:05:09 19° WSW 18:08:07 10° SSW
Cosmos 1937 Rocket 3.8 18:00:45 10° SSW 18:05:54 66° WNW 18:10:51 11° NNE
Atlas Centaur 2 3.5 18:03:05 10° SW 18:06:01 17° S 18:08:02 13° SE
SKYMED 3 4.5 18:02:56 13° NNE 18:06:53 86° ESE 18:11:13 10° SSW
EO 1 Del DPAF 3.1 18:06:52 28° NNE 18:08:46 77° ESE 18:12:33 10° S
Cosmos 2266 Rocket 3.9 18:09:43 10° N 18:15:44 62° E 18:21:47 10° SSE
Cosmos 1536 Rocket 3.4 18:13:32 10° S 18:17:52 67° E 18:19:11 42° NNE
CENTAUR R/B 4.2 18:12:58 10° NNW 18:18:28 21° NNE 18:19:14 21° NE
Cosmos 1743 3.4 18:16:47 10° NNW 18:20:35 55° W 18:24:21 10° S
CZ-4 R/B 3.5 18:17:57 10° SSW 18:21:14 27° W 18:24:33 10° NW
SKYMED 2 4.0 18:21:08 14° N 18:24:51 60° WNW 18:29:06 10° SSW
USA 238 DEB 3.7 18:18:36 10° NNW 18:25:39 62° NE 18:29:39 28° ESE
USA 238 3.7 18:18:42 10° NNW 18:25:45 62° NE 18:29:39 28° ESE
Meteor 1-23 Rocket 4.3 18:20:53 10° SSE 18:26:28 52° E 18:27:49 43° NE
Cosmos 2082 3.8 18:25:02 10° NNW 18:30:30 50° ENE 18:30:33 50° ENE
Cosmos 1697 Rocket 4.1 18:26:22 10° SSE 18:28:49 22° SE 18:28:49 22° SE
FENGYUN 3A 3.8 18:30:35 10° S 18:35:57 73° WSW 18:41:20 10° NNW
BREEZE-M DEB (TANK) 4.2 18:14:54 10° WNW 18:40:03 84° NNE 18:41:39 51° ESE
BREEZE-M DEB (TANK) 4.4 18:39:22 10° NW 18:41:06 27° NNW 18:41:06 27° NNW
SPOT 3 Rocket 4.1 18:37:51 10° S 18:42:57 58° W 18:48:04 10° NNW
Cosmos 372 Rocket 3.9 18:37:54 10° S 18:42:41 64° SE 18:42:41 64° SE
Cosmos 468 4.4 18:37:45 10° NNW 18:43:07 86° ENE 18:45:31 34° SSE
Cosmos 2227 Rocket 2.0 18:41:30 10° NNW 18:47:13 85° ENE 18:48:56 47° SSE
NOSS 3-2 (A) 3.9 18:51:08 10° NNW 18:58:33 61° NE 18:59:15 59° ENE
Thor Agena Rocket 4.2 19:01:21 45° S 19:01:21 45° S 19:04:57 10° S
NOSS 3-2 (C) 4.2 18:54:48 10° NNW 19:01:37 51° NE 19:01:37 51° NE
Meteor 1-15 Rocket 4.3 18:59:30 10° N 19:05:28 85° W 19:11:22 10° S
ATLAS 2AS CENTAUR R/B 3.6 19:01:25 10° SW 19:09:04 55° NW 19:12:51 32° NNE
Cosmos 2297 Rocket 2.4 19:09:20 10° NNW 19:14:38 67° W 19:14:38 67° W
ATLAS 3B R/B 2.9 19:17:36 10° NW 19:24:08 60° WSW 19:25:15 53° SSW
SJ 16-02 3.9 19:36:02 10° SW 19:37:20 17° WSW 19:37:20 17° WSW
CENTAUR R/B 4.4 20:03:06 10° NNW 20:06:26 28° NNW 20:06:26 28° NNW
